Time,TemperatureF,DewpointF,PressureIn,WindDirection,WindDirectionDegrees,WindSpeedMPH,WindSpeedGustMPH,Humidity,HourlyPrecipIn,Conditions,Clouds,dailyrainin,SoftwareType,DateUTC
2013-02-03 00:13:00,32.4,30.0,30.17,NW,307,3.0,9.0,89,0.00,,,0.00,weatherlink.com 1.10,2013-02-03 05:13:00,
2013-02-03 00:28:00,32.4,29.0,30.16,NNW,341,9.0,9.0,88,0.00,,,0.00,weatherlink.com 1.10,2013-02-03 05:28:00,
2013-02-03 00:43:00,32.4,29.0,30.16,WNW,283,0.0,8.0,88,0.00,,,0.00,weatherlink.com 1.10,2013-02-03 05:43:00,
2013-02-03 00:58:00,32.3,29.0,30.15,WNW,301,1.0,8.0,88,0.00,,,0.00,weatherlink.com 1.10,2013-02-03 05:58:00,
2013-02-03 01:13:00,32.1,29.0,30.14,NW,311,5.0,12.0,87,0.00,,,0.00,weatherlink.com 1.10,2013-02-03 06:13:00,
2013-02-03 01:28:00,31.8,28.0,30.15,WNW,294,6.0,10.0,87,0.00,,,0.00,weatherlink.com 1.10,2013-02-03 06:28:00,
2013-02-03 01:43:00,31.7,28.0,30.14,WNW,285,8.0,15.0,87,0.00,,,0.00,weatherlink.com 1.10,2013-02-03 06:43:00,
2013-02-03 01:58:00,31.5,28.0,30.14,WNW,295,3.0,11.0,87,0.00,,,0.00,weatherlink.com 1.10,2013-02-03 06:58:00,
2013-02-03 02:13:00,31.3,27.0,30.14,WNW,288,7.0,16.0,85,0.00,,,0.00,weatherlink.com 1.10,2013-02-03 07:13:00,
2013-02-03 02:28:00,31.0,26.0,30.14,NW,306,4.0,15.0,81,0.00,,,0.00,weatherlink.com 1.10,2013-02-03 07:28:00,
2013-02-03 02:44:00,30.6,25.0,30.13,NW,320,1.0,11.0,81,0.00,,,0.00,weatherlink.com 1.10,2013-02-03 07:44:00,
2013-02-03 02:59:00,30.2,25.0,30.12,WNW,300,4.0,14.0,80,0.00,,,0.00,weatherlink.com 1.10,2013-02-03 07:59:00,
2013-02-03 03:14:00,30.2,24.0,30.12,WNW,293,12.0,14.0,79,0.00,,,0.00,weatherlink.com 1.10,2013-02-03 08:14:00,
2013-02-03 03:29:00,30.1,25.0,30.12,NW,311,1.0,14.0,80,0.00,,,0.00,weatherlink.com 1.10,2013-02-03 08:29:00,
2013-02-03 03:44:00,30.1,25.0,30.12,WNW,289,7.0,18.0,80,0.00,,,0.00,weatherlink.com 1.10,2013-02-03 08:44:00,
2013-02-03 03:59:00,30.2,25.0,30.11,WSW,242,2.0,14.0,80,0.00,,,0.00,weatherlink.com 1.10,2013-02-03 08:59:00,
2013-02-03 04:14:00,30.2,24.0,30.12,NNW,330,9.0,22.0,79,0.00,,,0.00,weatherlink.com 1.10,2013-02-03 09:14:00,
2013-02-03 04:29:00,30.0,25.0,30.12,NW,319,6.0,16.0,80,0.00,,,0.00,weatherlink.com 1.10,2013-02-03 09:29:00,
2013-02-03 04:44:00,30.0,25.0,30.11,NNW,332,12.0,19.0,81,0.00,,,0.00,weatherlink.com 1.10,2013-02-03 09:44:00,
2013-02-03 04:59:00,30.2,25.0,30.12,NW,315,8.0,15.0,81,0.00,,,0.00,weatherlink.com 1.10,2013-02-03 09:59:00,
2013-02-03 05:14:00,30.2,25.0,30.12,WNW,302,3.0,15.0,81,0.00,,,0.00,weatherlink.com 1.10,2013-02-03 10:14:00,
2013-02-03 05:29:00,30.4,25.0,30.12,West,277,8.0,15.0,81,0.00,,,0.00,weatherlink.com 1.10,2013-02-03 10:29:00,
2013-02-03 05:44:00,30.4,25.0,30.11,NNW,345,6.0,21.0,81,0.00,,,0.00,weatherlink.com 1.10,2013-02-03 10:44:00,
2013-02-03 05:59:00,30.5,25.0,30.11,NNW,333,3.0,17.0,81,0.00,,,0.00,weatherlink.com 1.10,2013-02-03 10:59:00,
2013-02-03 06:14:00,30.5,25.0,30.11,NW,319,4.0,15.0,81,0.00,,,0.00,weatherlink.com 1.10,2013-02-03 11:14:00,
2013-02-03 06:29:00,30.8,26.0,30.12,WNW,284,5.0,14.0,81,0.00,,,0.00,weatherlink.com 1.10,2013-02-03 11:29:00,
2013-02-03 06:44:00,30.7,26.0,30.11,NW,316,5.0,13.0,81,0.00,,,0.00,weatherlink.com 1.10,2013-02-03 11:44:00,
2013-02-03 06:59:00,30.7,26.0,30.10,WNW,293,3.0,10.0,81,0.00,,,0.00,weatherlink.com 1.10,2013-02-03 11:59:00,
2013-02-03 07:14:00,30.4,26.0,30.09,WNW,297,5.0,14.0,82,0.00,,,0.00,weatherlink.com 1.10,2013-02-03 12:14:00,
2013-02-03 07:29:00,30.2,25.0,30.09,North,352,3.0,10.0,82,0.00,,,0.00,weatherlink.com 1.10,2013-02-03 12:29:00,
2013-02-03 07:44:00,30.4,26.0,30.08,NW,309,4.0,8.0,82,0.00,,,0.00,weatherlink.com 1.10,2013-02-03 12:44:00,
2013-02-03 07:59:00,31.0,26.0,30.10,NW,311,4.0,9.0,83,0.00,,,0.00,weatherlink.com 1.10,2013-02-03 12:59:00,
2013-02-03 08:14:00,29.7,28.0,30.09,NW,320,2.0,13.0,93,0.00,,,0.00,weatherlink.com 1.10,2013-02-03 13:14:00,
2013-02-03 08:29:00,30.2,28.0,30.10,NNW,343,2.0,8.0,92,0.00,,,0.00,weatherlink.com 1.10,2013-02-03 13:29:00,
2013-02-03 08:44:00,30.8,29.0,30.09,NNW,331,6.0,10.0,91,0.00,,,0.00,weatherlink.com 1.10,2013-02-03 13:44:00,
2013-02-03 08:59:00,31.3,29.0,30.10,WNW,298,3.0,12.0,89,0.00,,,0.00,weatherlink.com 1.10,2013-02-03 13:59:00,
2013-02-03 09:14:00,31.2,29.0,30.09,North,3,8.0,11.0,91,0.00,,,0.00,weatherlink.com 1.10,2013-02-03 14:14:00,
2013-02-03 09:29:00,30.8,29.0,30.09,NW,309,3.0,14.0,94,0.00,,,0.00,weatherlink.com 1.10,2013-02-03 14:29:00,
2013-02-03 09:44:00,31.1,30.0,30.09,NE,50,0.0,10.0,94,0.00,,,0.00,weatherlink.com 1.10,2013-02-03 14:44:00,
2013-02-03 09:59:00,31.9,30.0,30.09,North,356,6.0,13.0,91,0.00,,,0.00,weatherlink.com 1.10,2013-02-03 14:59:00,
2013-02-03 10:14:00,32.7,30.0,30.08,WNW,285,4.0,17.0,89,0.00,,,0.00,weatherlink.com 1.10,2013-02-03 15:14:00,
2013-02-03 10:29:00,33.3,30.0,30.08,NW,307,2.0,15.0,87,0.00,,,0.00,weatherlink.com 1.10,2013-02-03 15:29:00,
2013-02-03 10:44:00,34.3,30.0,30.07,NNW,328,4.0,14.0,85,0.00,,,0.00,weatherlink.com 1.10,2013-02-03 15:44:00,
2013-02-03 10:59:00,35.7,30.0,30.07,North,357,5.0,15.0,81,0.00,,,0.00,weatherlink.com 1.10,2013-02-03 15:59:00,
2013-02-03 11:14:00,37.0,31.0,30.07,NNW,336,8.0,13.0,78,0.00,,,0.00,weatherlink.com 1.10,2013-02-03 16:14:00,
2013-02-03 11:29:00,38.1,30.0,30.07,WNW,285,1.0,19.0,73,0.00,,,0.00,weatherlink.com 1.10,2013-02-03 16:29:00,
2013-02-03 11:44:00,37.8,30.0,30.06,North,350,5.0,20.0,73,0.00,,,0.00,weatherlink.com 1.10,2013-02-03 16:44:00,
2013-02-03 12:00:00,38.5,30.0,30.07,WNW,293,2.0,16.0,71,0.00,,,0.00,weatherlink.com 1.10,2013-02-03 17:00:00,
2013-02-03 12:15:00,39.2,29.0,30.06,NW,311,6.0,18.0,68,0.00,,,0.00,weatherlink.com 1.10,2013-02-03 17:15:00,
2013-02-03 12:30:00,39.0,29.0,30.05,NW,311,6.0,19.0,67,0.00,,,0.00,weatherlink.com 1.10,2013-02-03 17:30:00,
2013-02-03 12:45:00,37.7,28.0,30.04,NW,304,10.0,22.0,68,0.00,,,0.00,weatherlink.com 1.10,2013-02-03 17:45:00,
2013-02-03 13:00:00,37.5,27.0,30.03,WNW,293,4.0,20.0,67,0.00,,,0.00,weatherlink.com 1.10,2013-02-03 18:00:00,
2013-02-03 13:15:00,37.8,27.0,30.02,WNW,296,6.0,24.0,65,0.00,,,0.00,weatherlink.com 1.10,2013-02-03 18:15:00,
2013-02-03 13:30:00,37.5,26.0,30.02,NW,311,1.0,28.0,64,0.00,,,0.00,weatherlink.com 1.10,2013-02-03 18:30:00,
2013-02-03 13:45:00,37.6,25.0,30.01,NNW,348,7.0,34.0,62,0.00,,,0.00,weatherlink.com 1.10,2013-02-03 18:45:00,
2013-02-03 14:00:00,37.9,25.0,30.02,NW,312,4.0,19.0,60,0.00,,,0.00,weatherlink.com 1.10,2013-02-03 19:00:00,
2013-02-03 14:15:00,37.8,24.0,30.02,NW,316,5.0,27.0,57,0.00,,,0.00,weatherlink.com 1.10,2013-02-03 19:15:00,
2013-02-03 14:30:00,37.9,24.0,30.03,NW,307,2.0,21.0,57,0.00,,,0.00,weatherlink.com 1.10,2013-02-03 19:30:00,
2013-02-03 14:45:00,38.1,25.0,30.03,NNW,337,4.0,28.0,59,0.00,,,0.00,weatherlink.com 1.10,2013-02-03 19:45:00,
2013-02-03 15:00:00,37.8,24.0,30.03,WNW,295,4.0,20.0,59,0.00,,,0.00,weatherlink.com 1.10,2013-02-03 20:00:00,
2013-02-03 15:15:00,37.3,25.0,30.04,NW,312,13.0,21.0,62,0.00,,,0.00,weatherlink.com 1.10,2013-02-03 20:15:00,
2013-02-03 15:30:00,37.2,25.0,30.04,NW,319,20.0,27.0,61,0.00,,,0.00,weatherlink.com 1.10,2013-02-03 20:30:00,
2013-02-03 15:45:00,37.6,25.0,30.04,WNW,300,6.0,22.0,60,0.00,,,0.00,weatherlink.com 1.10,2013-02-03 20:45:00,
2013-02-03 16:00:00,37.4,25.0,30.04,NW,311,8.0,21.0,61,0.00,,,0.00,weatherlink.com 1.10,2013-02-03 21:00:00,
2013-02-03 16:15:00,37.6,25.0,30.06,East,97,1.0,17.0,61,0.00,,,0.00,weatherlink.com 1.10,2013-02-03 21:15:00,
2013-02-03 16:30:00,36.6,24.0,30.05,WNW,287,7.0,22.0,61,0.00,,,0.00,weatherlink.com 1.10,2013-02-03 21:30:00,
2013-02-03 16:45:00,35.8,24.0,30.05,NW,309,6.0,21.0,63,0.00,,,0.00,weatherlink.com 1.10,2013-02-03 21:45:00,
2013-02-03 17:00:00,35.5,25.0,30.07,WNW,287,1.0,15.0,65,0.00,,,0.00,weatherlink.com 1.10,2013-02-03 22:00:00,
2013-02-03 17:15:00,35.5,24.0,30.07,WNW,301,4.0,21.0,64,0.00,,,0.00,weatherlink.com 1.10,2013-02-03 22:15:00,
2013-02-03 17:30:00,35.3,24.0,30.07,West,280,4.0,21.0,63,0.00,,,0.00,weatherlink.com 1.10,2013-02-03 22:30:00,
2013-02-03 17:45:00,35.1,24.0,30.08,WSW,256,6.0,22.0,63,0.00,,,0.00,weatherlink.com 1.10,2013-02-03 22:45:00,
2013-02-03 18:00:00,34.8,24.0,30.07,NNE,13,4.0,28.0,64,0.00,,,0.00,weatherlink.com 1.10,2013-02-03 23:00:00,
2013-02-03 18:15:00,34.5,23.0,30.07,WNW,293,9.0,32.0,64,0.00,,,0.00,weatherlink.com 1.10,2013-02-03 23:15:00,
2013-02-03 18:30:00,34.3,23.0,30.07,NW,311,3.0,23.0,64,0.00,,,0.00,weatherlink.com 1.10,2013-02-03 23:30:00,
2013-02-03 18:45:00,34.2,23.0,30.09,North,359,4.0,21.0,64,0.00,,,0.00,weatherlink.com 1.10,2013-02-03 23:45:00,
2013-02-03 19:00:00,34.0,23.0,30.09,WNW,303,8.0,19.0,65,0.00,,,0.00,weatherlink.com 1.10,2013-02-04 00:00:00,
2013-02-03 19:15:00,33.9,23.0,30.09,West,280,6.0,26.0,65,0.00,,,0.00,weatherlink.com 1.10,2013-02-04 00:15:00,
2013-02-03 19:30:00,33.6,23.0,30.09,WNW,297,4.0,22.0,66,0.00,,,0.00,weatherlink.com 1.10,2013-02-04 00:30:00,
2013-02-03 19:45:00,33.4,23.0,30.11,WNW,291,7.0,17.0,67,0.00,,,0.00,weatherlink.com 1.10,2013-02-04 00:45:00,
2013-02-03 20:00:00,33.3,23.0,30.11,NW,319,3.0,16.0,66,0.00,,,0.00,weatherlink.com 1.10,2013-02-04 01:00:00,
2013-02-03 20:15:00,33.0,23.0,30.11,NW,308,9.0,17.0,68,0.00,,,0.00,weatherlink.com 1.10,2013-02-04 01:15:00,
2013-02-03 20:30:00,32.6,23.0,30.11,North,355,4.0,26.0,68,0.00,,,0.00,weatherlink.com 1.10,2013-02-04 01:30:00,
2013-02-03 20:45:00,32.3,23.0,30.11,WNW,302,7.0,16.0,68,0.00,,,0.00,weatherlink.com 1.10,2013-02-04 01:45:00,
2013-02-03 21:00:00,32.1,23.0,30.11,NW,314,7.0,16.0,69,0.00,,,0.00,weatherlink.com 1.10,2013-02-04 02:00:00,
2013-02-03 21:15:00,32.0,23.0,30.11,NW,321,7.0,20.0,69,0.00,,,0.00,weatherlink.com 1.10,2013-02-04 02:15:00,
2013-02-03 21:30:00,31.8,23.0,30.11,NW,319,3.0,19.0,70,0.00,,,0.00,weatherlink.com 1.10,2013-02-04 02:30:00,
2013-02-03 21:45:00,31.6,24.0,30.11,NW,311,12.0,25.0,72,0.00,,,0.00,weatherlink.com 1.10,2013-02-04 02:45:00,
2013-02-03 22:00:00,31.5,23.0,30.10,SW,235,6.0,21.0,71,0.00,,,0.00,weatherlink.com 1.10,2013-02-04 03:00:00,
2013-02-03 22:15:00,31.2,23.0,30.09,WNW,284,6.0,24.0,72,0.00,,,0.00,weatherlink.com 1.10,2013-02-04 03:15:00,
2013-02-03 22:30:00,31.0,23.0,30.11,West,278,5.0,22.0,72,0.00,,,0.00,weatherlink.com 1.10,2013-02-04 03:30:00,
2013-02-03 22:45:00,30.8,23.0,30.11,WNW,301,2.0,16.0,72,0.00,,,0.00,weatherlink.com 1.10,2013-02-04 03:45:00,
2013-02-03 23:00:00,30.3,22.0,30.12,NW,319,0.0,12.0,72,0.00,,,0.00,weatherlink.com 1.10,2013-02-04 04:00:00,
2013-02-03 23:15:00,30.0,22.0,30.12,WNW,302,2.0,6.0,72,0.00,,,0.00,weatherlink.com 1.10,2013-02-04 04:15:00,
2013-02-03 23:30:00,29.7,21.0,30.11,NW,308,7.0,8.0,71,0.00,,,0.00,weatherlink.com 1.10,2013-02-04 04:30:00,
2013-02-03 23:45:00,29.6,21.0,30.12,West,264,1.0,9.0,70,0.00,,,0.00,weatherlink.com 1.10,2013-02-04 04:45:00,